FLOCK 4E'-7 (46814 NORAD) Tracking and Keplerian Element Data

This shows tracking and keplerian element data for the satellite.

Feedback or suggestion? Click here.




ElementValue
Catalog46814
NameFLOCK 4E'-7
Epoch Orbit379
Epoch Day327.96243145
Epoch Year2020
RAAN28.1001
Inclination97.4972
Eccentricity0.0012569
Argument of Perigee235.4586
Mean Anonmoly249.0257
Mean Motion15.15734675
Decay Rate2.953E-05
L11 46814U 20077B 20327.96243145 .00002953 00000-0 15818-3 0 9992
L22 46814 97.4972 28.1001 0012569 235.4586 249.0257 15.15734675 3793

Live tracking and technical data element details for FLOCK 4E'-7 (NORAD 46814). FLOCK 4E'-7 can be tracked NOW for your location showing map with azimuth and elevation plus other details from your city location.

Track the satellite on the map from your city or location and see movement details for azimuth, elevation, latitude, longitude, range, height, and movement on the map or in text.







IsCatalogInMostPopularTable: catalog: 46814, numindb: 8
Update: records affected: 1



GetName: 46814 FLOCK 4E'-7

Hit Count: updated at: Tue, 24 Nov 2020 12:23:26 GMT